Location: Navarre
(52.9016°N, 113.4144°W)
Time: 07:46:28
(UTC+00:00)

Envisat - Pass Details

Date: 02 December 2021
Orbit: 764 x 766 km, 98.2° (Epoch: 25 January)

Event Time Altitude Azimuth Distance (km) Brightness Sun altitude
Rises 11:45:20 0° 22° (NNE) 3,248 6.6 -32.0°
Reaches altitude 10° 11:47:58 10° 34° (NNE) 2,316 5.9 -31.7°
Maximum altitude 11:52:21 28° 93° (E) 1,411 4.9 -31.0°
Drops below altitude 10° 11:56:41 10° 152° (SSE) 2,300 5.7 -30.3°
Sets 11:59:17 0° 163° (SSE) 3,221 6.4 -30.0°
